Location: Culleoka
(33.1312°N, 96.4919°W)
Time: 23:09:59
(UTC+00:00)

Lacrosse 5 rocket - Pass Details

Date: 07 July 2022
Orbit: 456 x 628 km, 57.0° (Epoch: 09 August)

Event Time Altitude Azimuth Distance (km) Brightness Sun altitude
Rises 02:31:27 0° 317° (NW) 2,592 6.7 -10.3°
Reaches altitude 10° 02:33:35 10° 314° (NW) 1,732 5.4 -10.6°
Maximum altitude 02:37:27 61° 234° (SW) 606 1.6 -11.3°
Enters shadow 02:40:51 14° 155° (SSE) 1,566 3.1 -11.8°
